MOLNIYA 1-88

Last updated on Oct. 29, 2020, 5:52 a.m. UTC

1 23420U 94081A   20301.27973972 -.00000035  00000-0  00000-0 0  9994
2 23420  64.2133 333.2866 6000235 292.3123  16.3803  3.34496464226937
UTC
Height (km)
Latitude
Longitude
Inclination
Orbital Period
UTC large
Height (km)
Speed (km/s)
/
Latitude / Longitude
Inclination (degrees)
Orbital Period (minutes)
Azimuth
Elevation
Range (km)
Doppler Factor
iOS Compass Heading
iOS Angle

Next 30 passes for location: Hong Kong

Rise time Rise Azimuth (degrees) Set time Set Azimuth (degrees) Duration Max altitude (degrees)

No matching passes for this satellites